Location: Unspecified
(54.1780°N, 0.0000°E)
Time: 23:57:58
(UTC+00:00)

Altair - Pass Details

Date: 22 June 2019
Orbit: 1501 x 1683 km, 47.2° (Epoch: 19 July)

Event Time Altitude Azimuth Distance (km) Brightness Sun altitude
Rises 18:28:35 0° 195° (SSW) 4,686 10.0 15.1°
Reaches altitude 10° 18:32:25 10° 181° (S) 3,733 9.4 14.6°
Maximum altitude 18:39:14 23° 135° (SE) 2,902 8.6 13.6°
Drops below altitude 10° 18:46:13 10° 88° (E) 3,850 9.1 12.7°
Sets 18:50:14 0° 75° (ENE) 4,868 9.7 12.1°
